Miscellaneous Local Product
Issued by NWS North Platte, NE

Home | Current Version | Previous Version | Text Only | Print | Product List | Glossary On
Versions: 1 2 3 4 5 6 7 8 9 10 11 12 13 14 15 16 17 18 19 20 21 22 23 24 25 26 27 28 29 30 31 32 33 34 35 36 37 38 39 40 41 42 43 44 45 46 47 48 49 50
000
AXUS43 KLBF 230510
MISLBF


WESTERN AND NORTH CENTRAL NEBRASKA HOURLY WEATHER ROUNDUP
NATIONAL WEATHER SERVICE NORTH PLATTE NE
1100 PM CST SAT NOV 22 2014

***STATIONS NOT REPORTING VARIABLES SUCH AS SKY/WEATHER OR
PRESSURE ARE PROVIDED BY THE NEBRASKA DEPARTMENT OF
ROADS...RAWS...AND APRS NETWORKS...AND ARE NOT UNDER
NATIONAL WEATHER SERVICE QUALITY CONTROL***

...OBSERVATIONS IN AND NEAR THE EASTERN PANHANDLE OF NEBRASKA...

CITY           SKY/WX    TMP DP  RH WIND       PRES   REMARKS
PINE RIDGE     CLEAR     37  30  75 W10       29.46R WCI  30
CHADRON        MOCLDY    37  30  75 W9        29.48R WCI  30
ALLIANCE       PTCLDY    35  28  75 CALM      29.50R
SIDNEY         MOCLDY    36  23  59 NW10      29.54R WCI  28
WHITECLAY        N/A     30  27  86 CALM        N/A
LISCO            N/A     39  28  65 W3          N/A
BIG SPRINGS      N/A     36  26  66 CALM        N/A
LEWELLEN         N/A     16   1  53 CALM        N/A
$$

...OBSERVATIONS IN NORTH CENTRAL NEBRASKA...

CITY           SKY/WX    TMP DP  RH WIND       PRES   REMARKS
VALENTINE      CLOUDY    42  38  85 S9        29.44F
THEDFORD       CLOUDY    49  33  54 S6        29.47F
AINSWORTH      CLOUDY    47  37  68 SW6       29.47F
O`NEILL        CLOUDY    51  36  57 SW8       29.47F
ORD            CLOUDY    41  32  70 SE7       29.51R
BROKEN BOW     CLOUDY    46  31  55 N3        29.51R
BROWNLEE         N/A     49  42  75 S5          N/A
BREWSTER         N/A     53  32  44 CALM        N/A
COMSTOCK         N/A     51  33  52 W7          N/A
$$

...OBSERVATIONS IN SOUTHWEST NEBRASKA AND FAR NORTHEAST COLORADO...

CITY           SKY/WX    TMP DP  RH WIND       PRES   REMARKS
WRAY           FAIR      47  15  28 E6        29.50F
HOLYOKE        FAIR      41  19  42 CALM      29.52R
IMPERIAL       CLOUDY    41  17  38 E6        29.49F
OGALLALA       CLOUDY    40  22  48 S3        29.50F
NORTH PLATTE   CLOUDY    39  26  59 E6        29.50F WCI  35
MCCOOK         MOCLDY    45  25  45 W9        29.53R
LEXINGTON      CLOUDY    49  32  52 NW5       29.55R
PAXTON           N/A     41  24  51 CALM        N/A
GOTHENBURG       N/A     44  25  46 CALM        N/A
CALLAWAY         N/A     41  30  65 S7          N/A
$$

...SOME WEATHER OBSERVATIONS FROM AROUND THE REGION...

CITY           SKY/WX    TMP DP  RH WIND       PRES   REMARKS
DENVER         MOCLDY    48  25  40 NW13      29.55F
LARAMIE        CLOUDY    33  27  78 W16       29.62F WCI  23
CHEYENNE       PTCLDY    40  27  59 W22       29.58F WCI  30
SCOTTSBLUFF    PTCLDY    43  29  57 NW10      29.51S
RAPID CITY     CLOUDY    39  33  79 N28G37    29.47R WCI  28
PIERRE         CLOUDY    37  32  82 CALM      29.40S
WINNER         CLOUDY    49  33  54 SW8       29.42F
SIOUX FALLS    CLOUDY    43  38  82 S10       29.45F
OMAHA          CLOUDY    55  53  93 S14       29.59S
KANSAS CITY    CLOUDY    55  51  86 S16       29.69F
WICHITA        CLOUDY    54  51  90 S21G28    29.64F
HAYS           CLOUDY    55  46  71 S24G33    29.53F
LIBERAL        CLEAR     48  43  81 S16       29.58F
GOODLAND       CLOUDY    47  26  44 SW7       29.50S
$$



USA.gov is the U.S. government's official web portal to all federal, state and local government web resources and services.